{"data":{"norad_id":63142,"intl_designator":"2025-043L","name":"STARLINK-11503 [DTC]","alt_names":[],"object_type":"PAYLOAD","status":"ACTIVE","operator":null,"country":"US","launch_date":"2025-03-03","launch_site_code":"AFETR","launch_vehicle":null,"mission":null,"orbit_class":"UNKNOWN","rcs_meters":null,"size_class":null,"mass_kg":null,"dimensions":null,"purposes":["comms"],"wikipedia_slug":null,"has_3d_model":false,"image_url":null,"decayed_at":null,"tle_current":{"epoch":"2026-09-21T09:05:36.270528Z","epoch_age_seconds":86258,"freshness":"FRESH","line1":"1 63142U 25043L   26264.37889202  .00147416  00000+0  11312-2 0  9991","line2":"2 63142  42.9999 150.7450 0000956 280.3828  79.6932 15.70859773 90077","mean_motion":15.70859773,"eccentricity":9.56e-5,"inclination_deg":42.9999,"raan_deg":150.745,"arg_perigee_deg":280.3828,"mean_anomaly_deg":79.6932,"bstar":0.0011312,"rev_number":9007,"period_min":91.669544586396,"perigee_km":355.79472180448,"apogee_km":357.08237264911,"semimajor_km":6734.5755472268,"source":"CELESTRAK","updated_at":"2026-09-22T09:00:49.791942Z"}}}